Find Kosmos-1072

NORAD ID: 11238 Int'l Des: 1979-003 Owner: VMF Country: SU operational
LEOCIRCULARPOLAR

Aktuelle Ansicht

3D-Globus wird geladen...

Über Kosmos-1072

Beschreibung wird geladen...

Nächste Überflüge

Passes for default location (London). Set your location on the main map for personalized predictions.

Höhenverlauf

Loading altitude history...

Zweizeiliger Elementsatz

1 11238U 79003A 26149.30852867 .00000054 00000-0 41063-4 0 9992
2 11238 82.9419 219.7385 0037596 22.5595 44.0182 13.74381284374782
Epoch: 29. Mai 2026 • Age: 22 hours

Aktueller Status

Höhe 1028.0 km
Geschwindigkeit 7.33 km/s
Subsatellitenpunkt -64.36°S, 87.61°E
Startdatum 16. Jan. 1979
Alter 47.3 years
Typ other

Technische Details

Klassifizierung Payload
Masse 800.00 kg
Trockenmasse 800.00 kg
Gesamtmasse 800.00 kg
Länge 5.00 m
Durchmesser 2.10 m
Spannweite 17.00 m
Form Cyl + Ant
Hersteller OAZ
Bus-Typ KAUR-1 11F627
Phasenstatus In Orbit
Besitzer/Staat VMF/SU

Most Searched